Weather reports worldwide

Advertisment
The Dalles, or, United States of America (2074393): temperature & dewpoint: 11.06.2019 19:00:00 - 17.06.2019 19:00:00 (PDT)The Dalles, or, United States of America (2074393): wind speed & gusts: 11.06.2019 19:00:00 - 17.06.2019 19:00:00 (PDT)The Dalles, or, United States of America (2074393): wind direction: 11.06.2019 19:00:00 - 17.06.2019 19:00:00 (PDT)The Dalles, or, United States of America (2074393): reduced air pressure: 11.06.2019 19:00:00 - 17.06.2019 19:00:00 (PDT)The Dalles, or, United States of America (2074393): visibility: 11.06.2019 19:00:00 - 17.06.2019 19:00:00 (PDT)
Date & Time tt [°C] td [°C] ff [km/h] ff [kn] fx [km/h] fx [kn] dd ppp [hPa] vv [km]
17.06.2019 19:00:00 27,2 11,7 39 21 57 31 W 1014,0 16
17.06.2019 18:00:00 29,4 11,7 35 19 55 30 W 1013,7 16
17.06.2019 17:00:00 29,4 11,7 34 18 52 28 WNW 1013,6 16
17.06.2019 16:00:00 28,3 12,8 31 17 50 27 NW 1013,6 16
17.06.2019 15:00:00 27,8 12,8 37 20 54 29 NNW 1014,0 16
17.06.2019 14:00:00 27,8 12,8 37 20 50 27 NNW 1014,3 16
17.06.2019 13:00:00 26,7 12,8 37 20 48 26 NNW 1014,8 16
17.06.2019 12:00:00 25,0 12,2 34 18 50 27 NW 1015,2 16
17.06.2019 11:00:00 23,9 12,2 34 18 48 26 NW 1015,2 16
17.06.2019 10:00:00 21,7 11,7 31 17 50 27 NW 1015,5 16
17.06.2019 09:00:00 20,0 11,7 28 15 - - NW 1015,7 16
17.06.2019 08:00:00 18,9 11,7 21 11 - - NW 1015,4 16
17.06.2019 07:00:00 17,8 11,1 15 8 - - WNW 1015,1 16
17.06.2019 06:00:00 17,2 11,1 35 19 48 26 NW 1014,4 16
17.06.2019 05:00:00 17,2 11,1 26 14 - - NW 1014,2 16
17.06.2019 04:00:00 17,8 11,1 35 19 50 27 NW 1013,5 16
17.06.2019 03:00:00 18,3 11,7 31 17 - - NW 1013,1 16
17.06.2019 02:00:00 18,9 11,7 28 15 - - NW 1012,9 16
17.06.2019 01:00:00 20,0 11,7 29 16 - - WNW 1012,6 16
17.06.2019 00:00:00 21,1 12,2 24 13 - - NW 1012,2 16
16.06.2019 23:00:00 22,2 12,2 18 10 - - NW 1012,1 16
16.06.2019 22:00:00 23,3 10,6 16 9 - - WNW 1011,7 16
16.06.2019 21:00:00 25,0 10,6 29 16 - - W 1010,8 16
16.06.2019 20:00:00 26,1 10,6 37 20 48 26 W 1010,8 16
16.06.2019 19:00:00 26,7 11,1 29 16 54 29 W 1010,5 16
16.06.2019 18:00:00 28,3 11,7 24 13 55 30 WNW 1010,4 16
16.06.2019 17:00:00 30,0 11,1 42 23 54 29 WNW 1010,1 16
16.06.2019 16:00:00 28,3 12,8 24 13 52 28 NW 1010,4 16
16.06.2019 15:00:00 28,9 12,2 34 18 52 28 NW 1010,7 16
16.06.2019 14:00:00 27,2 11,1 26 14 52 28 NW 1011,0 16
16.06.2019 13:00:00 26,1 11,7 37 20 50 27 NNW 1011,5 16
16.06.2019 12:00:00 25,0 11,1 37 20 50 27 NW 1011,9 16
16.06.2019 11:00:00 23,9 11,7 26 14 48 26 NNW 1012,3 16
16.06.2019 10:00:00 22,2 11,1 28 15 - - NW 1012,7 16
16.06.2019 09:00:00 20,0 11,7 31 17 - - NW 1013,1 16
16.06.2019 08:00:00 18,9 11,7 26 14 - - NW 1013,2 16
16.06.2019 07:00:00 17,8 11,7 28 15 - - NW 1012,9 16
16.06.2019 06:00:00 17,2 11,1 21 11 - - WNW 1012,8 16
16.06.2019 05:00:00 17,2 11,7 29 16 48 26 NW 1012,3 16
16.06.2019 04:00:00 18,3 11,7 31 17 - - NW 1011,9 16
16.06.2019 03:00:00 18,9 11,7 22 12 - - NW 1012,0 16
16.06.2019 02:00:00 20,0 11,7 22 12 - - NW 1012,0 16
16.06.2019 01:00:00 20,6 11,7 22 12 - - NW 1011,8 16
16.06.2019 00:00:00 21,1 11,7 28 15 - - NW 1011,8 16
15.06.2019 23:00:00 21,7 11,7 18 10 - - NW 1012,0 16
15.06.2019 22:00:00 22,2 12,2 18 10 - - NW 1012,0 16
15.06.2019 21:00:00 22,8 12,2 26 14 - - NW 1011,4 16
15.06.2019 20:00:00 24,4 12,8 29 16 - - NNW 1010,9 16
15.06.2019 19:00:00 25,6 12,2 34 18 - - NW 1010,3 16
15.06.2019 18:00:00 26,1 11,7 35 19 - - NW 1010,3 16
15.06.2019 17:00:00 26,1 11,1 31 17 54 29 NW 1010,8 16
15.06.2019 16:00:00 26,1 11,1 35 19 52 28 NW 1011,0 16
15.06.2019 15:00:00 26,7 10,6 37 20 - - NW 1011,5 16
15.06.2019 14:00:00 26,1 10,6 29 16 - - NW 1012,1 16
15.06.2019 13:00:00 25,6 9,4 26 14 - - NW 1012,7 16
15.06.2019 12:00:00 23,9 9,4 28 15 - - NW 1013,4 16
15.06.2019 11:00:00 21,7 9,4 34 18 - - NW 1013,8 16
15.06.2019 10:00:00 20,0 9,4 29 16 - - NW 1014,1 16
15.06.2019 09:00:00 18,9 8,9 26 14 - - NW 1014,4 16
15.06.2019 08:00:00 17,2 9,4 26 14 - - NW 1014,4 16
15.06.2019 07:00:00 15,6 8,9 15 8 - - W 1014,2 16
15.06.2019 06:00:00 15,0 9,4 26 14 - - NW 1013,7 16
15.06.2019 05:00:00 15,0 9,4 28 15 - - NW 1013,5 16
15.06.2019 04:00:00 15,6 9,4 24 13 - - NNW 1013,2 16
15.06.2019 03:00:00 16,1 9,4 21 11 - - WNW 1013,3 16
15.06.2019 02:00:00 17,2 9,4 26 14 - - WNW 1013,3 16
15.06.2019 01:00:00 17,2 9,4 24 13 - - NW 1013,1 16
15.06.2019 00:00:00 18,3 8,3 18 10 - - NW 1013,2 16
14.06.2019 23:00:00 18,9 8,3 22 12 - - NW 1013,1 16
14.06.2019 22:00:00 20,0 8,3 21 11 - - NW 1012,9 16
14.06.2019 21:00:00 20,6 8,9 21 11 - - NW 1012,1 16
14.06.2019 20:00:00 22,8 8,9 26 14 - - WNW 1011,6 16
14.06.2019 19:00:00 23,3 10,0 24 13 - - NW 1011,3 16
14.06.2019 18:00:00 25,0 9,4 22 12 59 32 NW 1011,4 16
14.06.2019 17:00:00 25,6 10,0 24 13 52 28 WNW 1011,9 16
14.06.2019 16:00:00 24,4 9,4 35 19 55 30 NW 1012,4 16
14.06.2019 15:00:00 23,3 9,4 39 21 57 31 NW 1012,7 16
14.06.2019 14:00:00 21,7 8,9 41 22 55 30 NW 1013,2 16
14.06.2019 13:00:00 21,1 8,3 41 22 61 33 NW 1013,9 16
14.06.2019 12:00:00 21,1 8,3 34 18 54 29 NW 1014,4 16
14.06.2019 11:00:00 20,0 8,3 35 19 57 31 NW 1014,5 16
14.06.2019 10:00:00 18,9 7,8 22 12 61 33 WNW 1014,5 16
14.06.2019 09:00:00 17,8 6,7 35 19 61 33 WNW 1014,8 16
14.06.2019 08:00:00 16,7 6,7 34 18 48 26 WNW 1014,5 16
14.06.2019 07:00:00 15,6 6,7 26 14 52 28 WNW 1014,6 16
14.06.2019 06:00:00 14,4 6,7 31 17 - - WNW 1013,8 16
14.06.2019 05:00:00 15,0 6,7 29 16 50 27 WNW 1012,9 16
14.06.2019 04:00:00 15,0 7,8 28 15 52 28 NW 1012,1 16
14.06.2019 03:00:00 16,7 6,7 31 17 - - WNW 1011,9 16
14.06.2019 02:00:00 18,3 7,2 21 11 - - NW 1011,7 16
14.06.2019 01:00:00 20,6 7,2 24 13 - - NW 1011,3 16
14.06.2019 00:00:00 21,7 9,4 18 10 - - WNW 1010,8 16
13.06.2019 23:00:00 23,3 8,3 21 11 - - W 1009,9 16
13.06.2019 22:00:00 25,0 8,3 28 15 - - W 1009,3 16
13.06.2019 21:00:00 25,6 8,9 15 8 - - W 1008,6 16
13.06.2019 20:00:00 27,8 7,2 28 15 54 29 W 1007,8 16
13.06.2019 19:00:00 29,4 6,7 31 17 55 30 WNW 1007,8 16
13.06.2019 18:00:00 31,1 7,2 34 18 54 29 W 1007,5 16
13.06.2019 17:00:00 33,3 7,2 35 19 59 32 W 1007,6 16
13.06.2019 16:00:00 33,9 7,8 37 20 59 32 W 1007,8 16
13.06.2019 15:00:00 33,9 6,1 39 21 54 29 W 1008,2 16
13.06.2019 14:00:00 33,3 7,8 34 18 55 30 WNW 1008,6 16
13.06.2019 13:00:00 32,8 10,0 37 20 - - W 1009,2 16
13.06.2019 12:00:00 32,2 12,2 24 13 - - NW 1009,4 16
13.06.2019 11:00:00 30,6 12,2 28 15 - - NW 1009,4 16
13.06.2019 10:00:00 28,3 12,8 21 11 - - NW 1009,6 16
13.06.2019 09:00:00 26,7 12,8 16 9 - - WNW 1010,1 16
13.06.2019 08:00:00 25,6 11,7 21 11 - - NW 1010,1 16
13.06.2019 07:00:00 23,9 12,2 5 3 - - S 1010,1 16
13.06.2019 06:00:00 21,1 12,8 5 3 - - - 1009,6 16
13.06.2019 05:00:00 23,3 12,2 13 7 - - W 1009,2 16
13.06.2019 04:00:00 23,9 12,8 13 7 - - WNW 1008,9 16
13.06.2019 03:00:00 24,4 13,3 21 11 - - NW 1008,8 16
13.06.2019 02:00:00 24,4 13,9 8 4 - - WSW 1008,7 16
13.06.2019 01:00:00 21,7 13,3 9 5 - - WNW 1008,7 16
13.06.2019 00:00:00 22,8 13,3 0 0 - - N 1008,8 16
12.06.2019 23:00:00 25,6 12,8 5 3 - - - 1008,7 16
12.06.2019 22:00:00 26,7 12,8 11 6 - - SE 1007,8 16
12.06.2019 21:00:00 30,0 11,7 8 4 - - NNE 1007,3 16
12.06.2019 20:00:00 32,2 13,3 0 0 - - N 1007,4 16
12.06.2019 19:00:00 34,4 10,6 8 4 - - S 1007,4 16
12.06.2019 18:00:00 35,6 10,0 0 0 - - N 1007,5 16
12.06.2019 17:00:00 35,6 10,0 9 5 - - S 1008,6 16
12.06.2019 16:00:00 35,6 10,0 9 5 - - - 1009,4 16
12.06.2019 15:00:00 35,6 10,0 11 6 - - ENE 1010,5 16
12.06.2019 14:00:00 35,0 11,1 13 7 - - NNE 1011,6 16
12.06.2019 13:00:00 33,9 11,1 - - - - - 1012,6 16
12.06.2019 12:00:00 31,1 11,1 5 3 - - E 1013,8 16
12.06.2019 11:00:00 26,7 11,1 9 5 - - - 1014,6 16
12.06.2019 10:00:00 23,9 11,1 0 0 - - N 1015,7 16
12.06.2019 09:00:00 20,6 11,1 0 0 - - N 1016,2 16
12.06.2019 08:00:00 18,9 11,1 0 0 - - N 1016,7 16
12.06.2019 07:00:00 15,6 10,6 0 0 - - N 1017,0 16
12.06.2019 06:00:00 14,4 9,4 0 0 - - N 1017,0 16
12.06.2019 05:00:00 13,9 9,4 0 0 - - N 1016,9 16
12.06.2019 04:00:00 15,6 9,4 0 0 - - N 1016,9 16
12.06.2019 03:00:00 15,6 9,4 0 0 - - N 1017,2 16
12.06.2019 02:00:00 17,2 9,4 9 5 - - ESE 1017,3 16
12.06.2019 01:00:00 18,3 10,0 9 5 - - SE 1017,3 16
12.06.2019 00:00:00 20,0 10,0 0 0 - - N 1017,4 16
11.06.2019 23:00:00 21,1 10,6 0 0 - - N 1017,5 16
11.06.2019 22:00:00 24,4 11,1 5 3 - - - 1017,2 16
11.06.2019 21:00:00 27,2 10,0 9 5 - - E 1016,5 16
11.06.2019 20:00:00 30,6 9,4 11 6 - - E 1016,5 16
11.06.2019 19:00:00 32,8 9,4 13 7 - - E 1016,8 16

tt = temperature
td = dewpoint
ff = wind speed
fx = gusts
dd = wind direction
ppp = reduced air pressure
vv = visibility

Next stations